Weather History for Whiteman AFB, MO

Change the Weather History Date:

Monday, January 21, 2013

  Actual Average Record
Temperature  
Mean Temperature 18 °F -  
Max Temperature 22 °F 37 °F 62 °F (1997)
Min Temperature 14 °F 20 °F 1 °F (2011)
Degree Days  
Heating Degree Days 47    
Moisture  
Dew Point 5 °F    
Average Humidity 58    
Maximum Humidity 80    
Minimum Humidity 36    
Precipitation  
Precipitation 0.00 in - - ()
Sea Level Pressure  
Sea Level Pressure 30.43 in    
Wind  
Wind Speed 9 mph (NNW)    
Max Wind Speed 13 mph    
Max Gust Speed 22 mph    
Visibility 10 miles    
Events      
Averages and records for this station are not official NWS values.
T = Trace of Precipitation, MM = Missing Value Source: NWS Daily Summary

Daily Weather History Graph

Daily Weather History Graph

Search for Another Location

Airport:

Trip Planner

Search our weather history database for the weather conditions in past years. The results will help you decide how hot, cold, wet, or windy it might be!

Date:

Astronomy

Jan. 21, 2013 Rise Set
Actual Time 7:27 AM CST 5:23 PM CST
Civil Twilight 6:59 AM CST 5:52 PM CST
Nautical Twilight 6:26 AM CST 6:24 PM CST
Astronomical Twilight 5:55 AM CST 6:56 PM CST
Moon 1:04 PM CST (1/21) 2:56 AM CST (1/21)
Length of Visible Light 10h 53m
Length of Day
9h 55m
Waxing Gibbous, 75% of the Moon is Illuminated
Jan 21
Waxing Gibbous
Jan 26
Full
Feb 3
Last Quarter
Feb 10
New
Feb 17
First Quarter

Hourly Weather History & Observations

Time (CST) Temp. Windchill Dew Point Humidity Pressure Visibility Wind Dir Wind Speed Gust Speed Precip Events Conditions
12:55 AM 20.1 °F 8.1 °F 9.9 °F 64% 30.40 in 10.0 mi North 11.5 mph - N/A   Partly Cloudy
1:55 AM 19.2 °F 6.4 °F 10.6 °F 69% 30.42 in 10.0 mi North 12.7 mph - N/A   Clear
2:55 AM 17.4 °F 5.4 °F 10.6 °F 75% 30.43 in 10.0 mi North 10.4 mph - N/A   Clear
3:55 AM 16.3 °F 6.7 °F 9.7 °F 75% 30.43 in 10.0 mi NNW 6.9 mph - N/A   Partly Cloudy
4:55 AM 15.1 °F 6.4 °F 9.9 °F 80% 30.43 in 10.0 mi WNW 5.8 mph - N/A   Clear
5:55 AM 14.9 °F 7.5 °F 9.7 °F 80% 30.43 in 10.0 mi NW 4.6 mph - N/A   Clear
6:55 AM 14.5 °F 7.1 °F 9.5 °F 80% 30.43 in 10.0 mi NW 4.6 mph - N/A   Clear
7:55 AM 14.5 °F 5.7 °F 9.3 °F 80% 30.44 in 10.0 mi NNW 5.8 mph - N/A   Clear
8:55 AM 17.6 °F 6.4 °F 9.9 °F 72% 30.45 in 10.0 mi WNW 9.2 mph - N/A   Clear
9:55 AM 18.7 °F 6.3 °F 10.2 °F 70% 30.45 in 10.0 mi NW 11.5 mph - N/A   Overcast
10:55 AM 20.3 °F 8.3 °F 7.5 °F 58% 30.46 in 10.0 mi NW 11.5 mph 21.9 mph N/A   Overcast
11:55 AM 21.6 °F 10.6 °F 7.2 °F 54% 30.45 in 10.0 mi NW 10.4 mph - N/A   Scattered Clouds
12:55 PM 22.8 °F 13.6 °F 6.1 °F 49% 30.43 in 10.0 mi NW 8.1 mph - N/A   Overcast
1:55 PM 22.5 °F 10.5 °F -1.3 °F 36% 30.42 in 10.0 mi NW 12.7 mph - N/A   Overcast
2:55 PM 22.5 °F 10.5 °F 0.7 °F 39% 30.42 in 10.0 mi NW 12.7 mph - N/A   Overcast
3:55 PM 21.6 °F 10.6 °F -0.0 °F 39% 30.42 in 10.0 mi NW 10.4 mph - N/A   Overcast
4:55 PM 20.3 °F 9.0 °F -2.2 °F 37% 30.41 in 10.0 mi NNW 10.4 mph - N/A   Overcast
5:55 PM 18.9 °F 8.0 °F -2.9 °F 38% 30.42 in 10.0 mi NNW 9.2 mph - N/A   Overcast
6:55 PM 17.8 °F 8.5 °F -1.1 °F 44% 30.43 in 10.0 mi NNE 6.9 mph - N/A   Overcast
7:55 PM 17.2 °F 6.8 °F -0.4 °F 46% 30.42 in 10.0 mi NNE 8.1 mph - N/A   Overcast
8:55 PM 16.9 °F 6.4 °F 0.5 °F 49% 30.43 in 10.0 mi North 8.1 mph - N/A   Overcast
9:55 PM 16.7 °F 7.2 °F 0.3 °F 49% 30.43 in 10.0 mi NNE 6.9 mph - N/A   Overcast
10:55 PM 16.3 °F 7.8 °F -0.6 °F 47% 30.43 in 10.0 mi NNE 5.8 mph - N/A   Overcast
11:55 PM 16.3 °F 5.7 °F 0.9 °F 51% 30.42 in 10.0 mi NNE 8.1 mph - N/A   Overcast